Santa Maria, CA

3:21 AM PDT on July 26, 2017 (GMT -0700)
Santa Maria Public Airport / Captain G. Allan Hancock Field

Weather History for KSMX - March, 2014

Change the Weather History Date:

Friday, March 21, 2014

  Actual Average Record
Temperature  
Mean Temperature 58 °F 54 °F  
Max Temperature 65 °F 65 °F 86 °F (1931)
Min Temperature 51 °F 43 °F 31 °F (1924)
Degree Days  
Heating Degree Days 7 11  
Month to date heating degree days 86 231  
Since 1 July heating degree days 1224 2064  
Cooling Degree Days 0 0  
Month to date cooling degree days 8 0  
Year to date cooling degree days 12 1  
Growing Degree Days 9 (Base 50)    
Moisture  
Dew Point 47 °F    
Average Humidity 71    
Maximum Humidity 89    
Minimum Humidity 52    
Precipitation  
Precipitation 0.00 in 0.07 in 1.49 in (1937)
Month to date precipitation 0.79 1.97  
Year to date precipitation 2.68 7.71  
Since 1 July precipitation 3.18  
Sea Level Pressure  
Sea Level Pressure 30.01 in    
Wind  
Wind Speed 5 mph (WNW)    
Max Wind Speed 18 mph    
Max Gust Speed 22 mph    
Visibility 8 miles    
Events      
T = Trace of Precipitation, MM = Missing Value Source: NWS Daily Summary

Daily Weather History Graph

Daily Weather History Graph

Search for Another Location

Airport or City:

Trip Planner

Search our weather history database for the weather conditions in past years. The results will help you decide how hot, cold, wet, or windy it might be!

Date:

Astronomy

Mar. 21, 2014 Rise Set
Actual Time 7:03 AM PDT 7:14 PM PDT
Civil Twilight 6:38 AM PDT 7:39 PM PDT
Nautical Twilight 6:09 AM PDT 8:09 PM PDT
Astronomical Twilight 5:39 AM PDT 8:39 PM PDT
Moon No Moon Rise 10:10 AM PDT (3/21)
Length of Visible Light 13h 00m
Length of Day
12h 10m
Waning Gibbous, 74% of the Moon is Illuminated
Mar 21
Waning Gibbous
Mar 23
Last Quarter
Mar 30
New
Apr 7
First Quarter
Apr 15
Full

Hourly Weather History & Observations

Time (PDT) Temp. Dew Point Humidity Pressure Visibility Wind Dir Wind Speed Gust Speed Precip Events Conditions
12:08 AM 53.6 °F 50.0 °F 88% 29.99 in 7.0 mi Calm Calm - N/A   Partly Cloudy
12:51 AM 53.1 °F 48.9 °F 86% 29.99 in 7.0 mi Calm Calm - N/A   Clear
1:51 AM 52.0 °F 48.0 °F 86% 29.99 in 6.0 mi SSE 4.6 mph - N/A   Scattered Clouds
2:00 AM 53.6 °F 48.2 °F 82% 29.98 in 6.0 mi SE 3.5 mph - N/A   Mostly Cloudy
2:51 AM 52.0 °F 48.0 °F 86% 29.98 in 6.0 mi Calm Calm - N/A   Overcast
3:51 AM 53.1 °F 48.9 °F 86% 29.97 in 6.0 mi Calm Calm - N/A   Overcast
3:59 AM 53.6 °F 48.2 °F 82% 29.96 in 6.0 mi Calm Calm - N/A   Overcast
4:14 AM 53.6 °F 48.2 °F 82% 29.96 in 6.0 mi Calm Calm - N/A   Haze
4:51 AM 54.0 °F 48.9 °F 83% 29.98 in 7.0 mi WSW 3.5 mph - N/A   Overcast
5:03 AM 53.6 °F 48.2 °F 82% 29.97 in 6.0 mi Calm Calm - N/A   Haze
5:51 AM 55.0 °F 48.9 °F 80% 29.99 in 7.0 mi Calm Calm - N/A   Overcast
6:51 AM 55.0 °F 46.9 °F 74% 29.99 in 5.0 mi Calm Calm - N/A   Overcast
7:51 AM 55.0 °F 48.0 °F 77% 30.01 in 6.0 mi SSW 3.5 mph - N/A   Overcast
8:51 AM 55.0 °F 46.9 °F 74% 30.03 in 8.0 mi West 4.6 mph - N/A   Overcast
9:51 AM 55.9 °F 46.9 °F 72% 30.04 in 8.0 mi Calm Calm - N/A   Overcast
10:51 AM 57.0 °F 46.9 °F 69% 30.05 in 8.0 mi Calm Calm - N/A   Overcast
11:51 AM 59.0 °F 46.9 °F 64% 30.05 in 9.0 mi Variable 4.6 mph - N/A   Overcast
12:51 PM 61.0 °F 46.0 °F 58% 30.04 in 10.0 mi Variable 3.5 mph - N/A   Mostly Cloudy
1:51 PM 64.9 °F 48.0 °F 54% 30.01 in 9.0 mi Variable 4.6 mph - N/A   Scattered Clouds
2:51 PM 64.9 °F 46.9 °F 52% 30.01 in 9.0 mi NW 11.5 mph - N/A   Partly Cloudy
3:51 PM 62.1 °F 45.0 °F 53% 30.01 in 9.0 mi WNW 15.0 mph - N/A   Partly Cloudy
4:51 PM 60.1 °F 45.0 °F 57% 30.01 in 9.0 mi NW 13.8 mph - N/A   Scattered Clouds
5:51 PM 57.9 °F 45.0 °F 62% 30.01 in 8.0 mi NW 11.5 mph - N/A   Mostly Cloudy
6:51 PM 55.9 °F 44.1 °F 64% 30.01 in 8.0 mi WNW 9.2 mph - N/A   Mostly Cloudy
7:51 PM 55.0 °F 44.1 °F 67% 30.02 in 10.0 mi WNW 9.2 mph - N/A   Overcast
8:51 PM 55.0 °F 44.1 °F 67% 30.02 in 10.0 mi NW 5.8 mph - N/A   Overcast
9:51 PM 54.0 °F 44.1 °F 69% 30.03 in 10.0 mi West 4.6 mph - N/A   Overcast
10:51 PM 54.0 °F 44.1 °F 69% 30.04 in 9.0 mi NW 5.8 mph - N/A   Overcast
11:51 PM 55.0 °F 43.0 °F 64% 30.04 in 10.0 mi NNW 5.8 mph - N/A   Overcast